Tarboro, NC

1:18 PM EDT on September 26, 2017 (GMT -0400)
Tarboro-edgecombe

Weather History for KETC - October, 2012

Change the Weather History Date:

Thursday, October 11, 2012

  Actual Average Record
Temperature  
Mean Temperature 56 °F -  
Max Temperature 85 °F 74 °F 95 °F (2014)
Min Temperature 44 °F 49 °F 33 °F (1989)
Degree Days  
Heating Degree Days 10    
Growing Degree Days 6 (Base 50)    
Moisture  
Dew Point 44 °F    
Average Humidity 70    
Maximum Humidity 95    
Minimum Humidity 37    
Precipitation  
Precipitation 0.00 in - - ()
Sea Level Pressure  
Sea Level Pressure 30.23 in    
Wind  
Wind Speed 3 mph (NNW)    
Max Wind Speed 8 mph    
Max Gust Speed 12 mph    
Visibility 9 miles    
Events Fog    
Averages and records for this station are not official NWS values.
T = Trace of Precipitation, MM = Missing Value Source: NWS Daily Summary

Daily Weather History Graph

Daily Weather History Graph

Search for Another Location

Airport or City:

Trip Planner

Search our weather history database for the weather conditions in past years. The results will help you decide how hot, cold, wet, or windy it might be!

Date:

Astronomy

Oct. 11, 2012 Rise Set
Actual Time 7:13 AM EDT 6:39 PM EDT
Civil Twilight 6:48 AM EDT 7:04 PM EDT
Nautical Twilight 6:18 AM EDT 7:34 PM EDT
Astronomical Twilight 5:48 AM EDT 8:04 PM EDT
Moon 2:57 AM EDT (10/11) 4:08 PM EDT (10/11)
Length of Visible Light 12h 16m
Length of Day
11h 25m
Waning Crescent, 18% of the Moon is Illuminated
Oct 11
Waning Crescent
Oct 15
New
Oct 21
First Quarter
Oct 29
Full
Nov 6
Last Quarter

Hourly Weather History & Observations

Time (EDT) Temp. Dew Point Humidity Pressure Visibility Wind Dir Wind Speed Gust Speed Precip Events Conditions
12:15 AM 54.9 °F 50.4 °F 85% 30.09 in 10.0 mi West 4.6 mph - N/A   Clear
12:35 AM 54.5 °F 49.8 °F 84% 30.10 in 10.0 mi West 4.6 mph - N/A   Clear
12:55 AM 55.0 °F 50.0 °F 83% 30.10 in 10.0 mi WNW 5.8 mph - N/A   Clear
1:15 AM 55.0 °F 49.5 °F 81% 30.11 in 10.0 mi WNW 3.5 mph - N/A   Clear
1:35 AM 54.1 °F 48.7 °F 82% 30.11 in 10.0 mi West 4.6 mph - N/A   Clear
2:35 AM 51.6 °F 47.8 °F 87% 30.13 in 10.0 mi WNW 3.5 mph - N/A   Clear
2:55 AM 51.6 °F 47.8 °F 87% 30.14 in 10.0 mi WNW 3.5 mph - N/A   Clear
3:35 AM 49.5 °F 47.3 °F 92% 30.15 in 10.0 mi WNW 3.5 mph - N/A   Clear
3:55 AM 48.7 °F 46.4 °F 92% 30.15 in 10.0 mi WNW 3.5 mph - N/A   Clear
4:15 AM 48.6 °F 46.4 °F 92% 30.16 in 10.0 mi WNW 4.6 mph - N/A   Clear
4:35 AM 49.5 °F 46.9 °F 91% 30.16 in 10.0 mi WNW 5.8 mph - N/A   Clear
4:55 AM 50.2 °F 46.6 °F 87% 30.17 in 10.0 mi Calm Calm - N/A   Clear
5:15 AM 48.7 °F 45.3 °F 88% 30.18 in 10.0 mi Calm Calm - N/A   Clear
5:35 AM 47.1 °F 44.8 °F 92% 30.19 in 10.0 mi Calm Calm - N/A   Clear
5:55 AM 47.8 °F 45.0 °F 90% 30.20 in 10.0 mi Calm Calm - N/A   Clear
6:15 AM 47.3 °F 44.1 °F 88% 30.21 in 10.0 mi Calm Calm - N/A   Clear
6:35 AM 47.5 °F 43.9 °F 87% 30.22 in 10.0 mi NNW 3.5 mph - N/A   Clear
6:55 AM 48.4 °F 43.7 °F 84% 30.23 in 10.0 mi Calm Calm - N/A   Clear
7:15 AM 48.2 °F 43.2 °F 83% 30.23 in 10.0 mi Calm Calm - N/A   Clear
7:35 AM 46.4 °F 42.3 °F 85% 30.24 in 10.0 mi Calm Calm - N/A   Clear
8:35 AM 50.9 °F 45.7 °F 82% 30.27 in 10.0 mi North 3.5 mph - N/A   Clear
8:55 AM 52.9 °F 46.2 °F 78% 30.28 in 10.0 mi North 4.6 mph - N/A   Clear
9:15 AM 54.7 °F 46.0 °F 73% 30.29 in 10.0 mi North 5.8 mph - N/A   Clear
9:35 AM 56.3 °F 46.6 °F 70% 30.30 in 10.0 mi North 5.8 mph - N/A   Clear
9:55 AM 57.7 °F 43.9 °F 60% 30.30 in 10.0 mi NE 8.1 mph - N/A   Clear
10:15 AM 58.8 °F 41.7 °F 53% 30.31 in 10.0 mi NNE 6.9 mph 11.5 mph N/A   Clear
10:35 AM 60.1 °F 41.7 °F 51% 30.31 in 10.0 mi NE 6.9 mph - N/A   Clear
10:55 AM 60.6 °F 41.0 °F 48% 30.31 in 10.0 mi North 8.1 mph - N/A   Clear
11:15 AM 61.2 °F 41.0 °F 47% 30.31 in 10.0 mi NNE 8.1 mph - N/A   Clear
11:35 AM 61.5 °F 41.2 °F 47% 30.31 in 10.0 mi NNE 6.9 mph - N/A   Clear
11:55 AM 63.0 °F 42.6 °F 47% 30.30 in 10.0 mi ENE 5.8 mph - N/A   Clear
12:15 PM 63.0 °F 42.3 °F 47% 30.30 in 10.0 mi NNW 4.6 mph - N/A   Clear
12:35 PM 63.5 °F 41.0 °F 44% 30.29 in 10.0 mi NE 6.9 mph - N/A   Clear
12:55 PM 64.0 °F 41.0 °F 43% 30.29 in 10.0 mi NE 5.8 mph - N/A   Clear
1:15 PM 64.2 °F 39.9 °F 41% 30.28 in 10.0 mi NNE 5.8 mph - N/A   Clear
1:35 PM 64.8 °F 40.1 °F 40% 30.27 in 10.0 mi Calm Calm - N/A   Clear
1:55 PM 65.1 °F 39.7 °F 39% 30.27 in 10.0 mi NNW 3.5 mph - N/A   Clear
2:15 PM 65.8 °F 39.9 °F 39% 30.26 in 10.0 mi Calm Calm - N/A   Clear
2:35 PM 65.5 °F 40.3 °F 40% 30.26 in 10.0 mi NE 3.5 mph - N/A   Clear
2:55 PM 65.5 °F 40.1 °F 39% 30.25 in 10.0 mi ESE 4.6 mph - N/A   Clear
3:15 PM 66.2 °F 39.6 °F 38% 30.25 in 10.0 mi Calm Calm - N/A   Clear
3:35 PM 66.6 °F 39.2 °F 37% 30.24 in 10.0 mi Calm Calm - N/A   Clear
3:55 PM 67.1 °F 39.7 °F 37% 30.25 in 10.0 mi Calm Calm - N/A   Clear
4:15 PM 66.6 °F 39.4 °F 37% 30.24 in 10.0 mi Calm Calm - N/A   Clear
4:35 PM 66.4 °F 39.6 °F 37% 30.23 in 10.0 mi Calm Calm - N/A   Clear
5:15 PM 66.2 °F 41.2 °F 40% 30.23 in 10.0 mi Calm Calm - N/A   Clear
5:35 PM 65.7 °F 41.5 °F 41% 30.23 in 10.0 mi WSW 3.5 mph - N/A   Clear
5:55 PM 64.9 °F 43.2 °F 45% 30.23 in 10.0 mi Calm Calm - N/A   Clear
6:35 PM 60.1 °F 48.0 °F 64% 30.23 in 10.0 mi Calm Calm - N/A   Clear
7:15 PM 54.0 °F 50.5 °F 88% 30.24 in 10.0 mi Calm Calm - N/A   Clear
7:35 PM 51.8 °F 49.3 °F 91% 30.24 in 10.0 mi Calm Calm - N/A   Clear
7:55 PM 51.1 °F 48.9 °F 92% 30.25 in 5.0 mi Calm Calm - N/A   Clear
8:15 PM 50.0 °F 47.7 °F 92% 30.25 in 10.0 mi Calm Calm - N/A   Clear
8:35 PM 49.1 °F 47.3 °F 93% 30.25 in 10.0 mi Calm Calm - N/A   Clear
9:15 PM 48.2 °F 46.6 °F 94% 30.25 in 1.2 mi Calm Calm - N/A   Mist
9:35 PM 47.7 °F 46.0 °F 94% 30.26 in 0.5 mi Calm Calm - N/A Fog Fog
9:55 PM 46.8 °F 45.3 °F 95% 30.25 in 1.0 mi Calm Calm - N/A   Mist
10:15 PM 46.4 °F 45.0 °F 95% 30.26 in 0.2 mi Calm Calm - N/A Fog Fog
10:55 PM 45.5 °F 43.9 °F 94% 30.25 in 0.2 mi Calm Calm - N/A Fog Fog
11:15 PM 45.1 °F 43.7 °F 95% 30.24 in 0.2 mi Calm Calm - N/A Fog Fog
11:35 PM 44.8 °F 43.2 °F 94% 30.24 in 0.5 mi Calm Calm - N/A Fog Fog
11:55 PM 44.4 °F 43.2 °F 95% 30.23 in 0.2 mi Calm Calm - N/A Fog Fog